Showing default

SES 17, 49332

Orbit data source: Space-Track

SES 17, 49332 is a payload satellite owned by SES (LU) in GEO that was launched on Sun, 24 Oct 2021 UTC via an ARIANE 5ECA+ launch vehicle from the French Guiana (FRGUI). Payload-class satellites include a variety of spacecraft equipped with specific instruments for various scientific and technological missions. These include communications satellites like Starlink; space stations such as the ISS; scientific satellites like the Hubble; Earth observation satellites from companies like Planet Labs, Umbra, and HawkEye 360; GPS; miniature CubeSats for education and research; and military/defense satellites.

Loading next visibility...
Identifier
49332, 2021-095A
Orbit
GEO
Country
Flag of LULU / SES
Related business
Manufacturer
Thales Alenia
Mission
Operational Commercial Communications
Bus & Motor
SPACEBUS NEO200, XPS/PPS-5000
Mass
6,411 kg wet, ~5,800 kg dry
Launch date (UTC)
2021-10-24 (4 years ago)
Launch vehicle
ARIANE 5ECA+
Launch site
French Guiana (FRGUI)
Object type
Payload
Rocket body
Debris
Shape & HBR
Box + 2 Pan, 23.0 m
Radar Cross Section
63.452 m², Large (>1 m²)

Expand to show TLE details & history
Last TLE update: 22 hours ago

TLE from 22 hours ago
0 SES 17
1 49332U 21095A   25346.26301904 -.00000262  00000-0  00000-0 0  9994
2 49332   0.0197  24.0453 0001042 236.7130 208.0478  1.00270552 15981
Epoch: 2025-12-12T06:18Z
TLE epoch observation values (Epoch: 2025-12-12T06:18:44.845Z)
Latitude
0.03136°
Longitude
-67.09898°
Altitude
35,790.319 km
Speed
3.074 km/s
True Right ascension
07h 15m 10s
True Declination
0° 01' 53"
Sunlit
Object was in daylight at epoch
Visualization orbit readout
Latitude
Unknown
Longitude
Unknown
Altitude
Unknown
Speed
Unknown
Apparent Right ascension
Unknown
Apparent Declination
Unknown
Sunlit
N/A
Visualization observer readout
Local Sidereal Time
02:35:38
Azimuth
Unknown
Elevation
Unknown
Doppler factor
Unknown
Orbital elements
Apogee altitude
35,792.405 km
Perigee altitude
35,783.617 km
Semi-major axis
42,166.148 km
Eccentricity
0.0001
Inclination
0.0197°
RAAN
24.0453°
Arg. of periapsis
236.713°
True anomaly
208.04219°
Mean anomaly
208.0478°
Eccentric anomaly
208.04499°
Mean motion
0.25067 °/min
Orbital period
1,436.17 mins
BSTAR
0
Loading maneuver chart data...
Computing Atmospheric mass density...
Loading historical data...
Loading historical data...
Loading historical data...
Loading historical data...
Loading historical data...
Loading historical data...
Loading historical data...
Other satellites on launch #95 in the year 2021 (2021-10-24 UTC)

Documentation

Showing up to 5 results
|